Powrót do katalogu

NOAA 18

AktywnyPogodaSSO
NORAD 28654·PAYLOAD·🇺🇸 United States

Wystrzelony May 20, 2005 z Vandenberg Space Force Base

Loading…

Następne Przeloty (najbliższe 24 godziny)

TLE

ŚwieżeSource: Space-Track

Epoka: Sep 14, 2026, 13:55 UTC

1 28654U 05018A   26257.58042519  .00000045  00000-0  46931-4 0  9991
2 28654  98.8058 335.9367 0013204 255.6268 104.3439 14.13743109 98942

Śledź NOAA 18 w czasie rzeczywistym z AllMySat

Download on the App Store